ISS (ZARYA) 1 25544U 98067A 26238.17646693 .00007447 00000+0 14005-3 0 9997 2 25544 51.6329 313.6786 0007692 84.9120 275.2747 15.49633385582602 POISK 1 36086U 09060A 26238.17646693 .00007447 00000+0 14005-3 0 9995 2 36086 51.6329 313.6786 0007692 84.9120 275.2747 15.49633385582739 CSS (TIANHE) 1 48274U 21035A 26238.30990125 .00014464 00000+0 18254-3 0 9997 2 48274 41.4676 256.3321 0001670 252.2409 107.8247 15.59279364304114 ISS (NAUKA) 1 49044U 21066A 26238.17646693 .00007447 00000+0 14005-3 0 9993 2 49044 51.6329 313.6786 0007692 84.9120 275.2747 15.49633385582771 FREGAT DEB 1 49271U 11037PF 26237.45293196 .00016289 00000+0 24580-1 0 9999 2 49271 51.6398 153.4245 0926713 75.3644 294.8017 12.43763643233668 CSS (WENTIAN) 1 53239U 22085A 26238.30990125 .00014464 00000+0 18254-3 0 9990 2 53239 41.4676 256.3321 0001670 252.2409 107.8247 15.59279364288235 CSS (MENGTIAN) 1 54216U 22143A 26238.30990125 .00014464 00000+0 18254-3 0 9991 2 54216 41.4676 256.3321 0001670 252.2409 107.8247 15.59279364304443 HRC MONOBLOCK CAMERA 1 66052U 98067XR 26238.28190402 .00129367 00000+0 47396-3 0 9995 2 66052 51.6169 275.8993 0006563 28.4129 331.7233 15.87417363 49086 SZ-21 MODULE 1 66515U 25246C 26237.26102558 .00062066 00000+0 28332-3 0 9991 2 66515 41.4696 235.1504 0008710 160.7980 199.3196 15.82780522 44660 DUPLEX 1 66906U 98067XS 26237.20267875 .00042873 00000+0 38582-3 0 9996 2 66906 51.6254 299.6298 0003982 56.1039 304.0335 15.67762663 41465 KNACKSAT-2 1 67683U 98067XZ 26237.58828125 .00054760 00000+0 51584-3 0 9996 2 67683 51.6273 303.7315 0007306 83.9600 276.2228 15.66502972 31130 GXIBA-1 1 67685U 98067YB 26237.36147271 .00074322 00000+0 61343-3 0 9990 2 67685 51.6242 302.9424 0008063 77.9613 282.2287 15.69610374 31128 UITMSAT-2 1 67686U 98067YC 26237.20992099 .00142174 00000+0 82863-3 0 9991 2 67686 51.6243 299.6473 0008142 37.2990 322.8574 15.77440963 31158 LEOPARD 1 67687U 98067YD 26237.79427173 .00083477 00000+0 68760-3 0 9992 2 67687 51.6271 301.3666 0007773 47.7432 312.4223 15.69614849 31109 HMU-SAT2 1 67688U 98067YE 26237.37458183 .00101701 00000+0 70986-3 0 9996 2 67688 51.6256 300.7834 0007359 42.0564 318.0998 15.73469959 31079 CREW DRAGON 12 1 67796U 26031A 26238.17646693 .00007447 00000+0 14005-3 0 9994 2 67796 51.6329 313.6786 0007692 84.9120 275.2747 15.49633385583192 PROGRESS-MS 33 1 68319U 26058A 26238.17646693 .00007447 00000+0 14005-3 0 9995 2 68319 51.6329 313.6786 0007692 84.9120 275.2747 15.49633385582890 CYGNUS NG-24 1 68689U 26079A 26238.17646693 .00007447 00000+0 14005-3 0 9998 2 68689 51.6329 313.6786 0007692 84.9120 275.2747 15.49633385583318 PROGRESS-MS 34 1 68837U 26093A 26238.17646693 .00007447 00000+0 14005-3 0 9999 2 68837 51.6329 313.6786 0007692 84.9120 275.2747 15.49633385583357 TIANZHOU-10 1 69049U 26102A 26238.30990125 .00014464 00000+0 18254-3 0 9990 2 69049 41.4676 256.3321 0001670 252.2409 107.8247 15.59279364304544 SHENZHOU-23 (SZ-23) 1 69180U 26113A 26238.30990125 .00014464 00000+0 18254-3 0 9998 2 69180 41.4676 256.3321 0001670 252.2409 107.8247 15.59279364304269